FW2347 Weather Reports


time (UTC)temp
C
wind
direction
speed
KPH
gust
KPH
rain 1hr
cm
rain 24hr
cm
rain mn
cm
humidity
%
barometer
mb
20260506163052 18 350 0.0 0.0 0.00 0.00 0.00 51 1009.1
20260506161557 18 339 0.0 0.0 0.00 0.00 0.00 51 1009.0
20260506160104 18 55 0.0 0.0 0.00 0.00 0.00 50 1009.1
20260506154505 18 279 0.0 0.0 0.00 0.00 0.00 50 1009.1
20260506153012 18 319 0.0 0.0 0.00 0.00 0.00 50 1009.2
20260506151533 18 346 0.0 0.0 0.00 0.00 0.00 51 1009.2
20260506150028 18 317 0.0 0.0 0.00 0.00 0.00 51 1009.3
20260506144539 18 13 0.0 0.0 0.00 0.00 0.00 51 1009.3
20260506143047 18 309 0.0 0.0 0.00 0.00 0.00 52 1009.4
20260506141558 18 274 0.0 0.0 0.00 0.00 0.00 51 1009.9
20260506140010 18 309 0.0 0.0 0.00 0.00 0.00 51 1009.9
20260506134545 18 321 0.0 0.0 0.00 0.00 0.00 51 1010.1
20260506133056 18 291 0.0 0.0 0.00 0.00 0.00 52 1010.1
20260506131514 18 317 0.0 0.0 0.00 0.00 0.00 54 1010.2
20260506130015 18 296 0.0 0.0 0.00 0.00 0.00 54 1010.3
20260506124532 17 259 0.0 0.0 0.00 0.00 0.00 53 1010.4
20260506123051 18 14 0.0 0.0 0.00 0.00 0.00 54 1010.5
20260506121512 17 350 0.0 0.0 0.00 0.00 0.00 58 1010.4
20260506120024 17 292 0.0 0.0 0.00 0.00 0.00 60 1010.5
20260506114549 17 255 0.0 0.0 0.00 0.00 0.00 65 1010.5
20260506113048 16 211 0.0 0.0 0.00 0.00 0.00 69 1010.6
20260506111509 15 229 0.0 0.0 0.00 0.00 0.00 71 1010.9
20260506110049 16 222 0.0 0.0 0.00 0.00 0.00 71 1011.1
20260506104615 15 284 0.0 0.0 0.00 0.00 0.00 72 1011.1
20260506103106 15 336 0.0 0.0 0.00 0.00 0.00 72 1011.3
20260506101518 15 268 0.0 0.0 0.00 0.00 0.00 72 1011.4
20260506100011 14 269 0.0 0.0 0.00 0.00 0.00 72 1011.6
20260506094552 13 313 0.0 0.0 0.00 0.00 0.00 71 1011.8
20260506093104 13 281 0.0 0.0 0.00 0.00 0.00 67 1011.8
20260506091502 12 209 0.0 0.0 0.00 0.00 0.00 59 1011.8
20260506090001 12 250 0.0 0.0 0.00 0.00 0.00 47 1011.7
20260506084521 11 246 0.0 0.0 0.00 0.00 0.00 34 1011.8
20260506083026 10 234 0.0 0.0 0.00 0.00 0.00 30 1011.7
20260506081540 10 273 0.0 0.0 0.00 0.00 0.00 26 1011.6
20260506073019 10 278 0.0 0.0 0.00 0.00 0.00 13 1011.7
20260506071555 9 272 0.0 0.0 0.00 0.00 0.00 11 1011.6
20260506061522 8 245 0.0 0.0 0.00 0.00 0.00 3 1011.4
20260506050113 6 231 0.0 0.0 0.00 0.00 0.00 6 1010.7
20260506044608 5 231 0.0 0.0 0.00 0.00 0.00 7 1010.4
20260506043004 5 231 0.0 0.0 0.00 0.00 0.00 8 1010.3
20260506041529 5 230 0.0 0.0 0.00 0.00 0.00 8 1010.3
20260506040039 5 231 0.0 0.0 0.00 0.00 0.00 9 1010.4
20260506034546 4 230 0.0 0.0 0.00 0.00 0.00 9 1010.3
20260506033051 5 231 0.0 0.0 0.00 0.00 0.00 9 1010.2
20260506031607 4 231 0.0 0.0 0.00 0.00 0.00 10 1010.1
20260506030008 4 231 0.0 0.0 0.00 0.00 0.00 10 1010.2
20260506024509 5 231 0.0 0.0 0.00 0.00 0.00 10 1010.1
20260506023033 5 230 0.0 0.0 0.00 0.00 0.00 11 1010.1
20260506021548 5 231 0.0 0.0 0.00 0.00 0.00 11 1010.1
20260506020100 5 230 0.0 0.0 0.00 0.00 0.00 11 1010.0
20260506014507 5 231 0.0 0.0 0.00 0.03 0.00 12 1010.0
20260506013022 5 231 0.0 0.0 0.00 0.03 0.00 12 1010.0
20260506011507 5 231 0.0 0.0 0.00 0.03 0.00 12 1010.0
20260506010030 5 231 0.0 0.0 0.00 0.03 0.00 13 1010.1
20260506004558 6 231 0.0 0.0 0.00 0.03 0.00 13 1010.3
20260506003103 6 231 0.0 0.0 0.00 0.03 0.00 13 1010.4
20260506001513 6 231 0.0 0.0 0.00 0.03 0.00 14 1010.4
20260506000036 6 230 0.0 0.0 0.00 0.03 0.00 14 1010.5
20260505234516 6 230 0.0 0.0 0.00 0.03 0.00 15 1010.5
20260505233025 7 231 0.0 0.0 0.00 0.03 0.00 15 1010.5
20260505231549 7 231 0.0 0.0 0.00 0.03 0.00 15 1010.5
20260505230037 7 231 0.0 0.0 0.00 0.03 0.00 16 1010.3
20260505224549 7 231 0.0 0.0 0.00 0.03 0.00 17 1010.5
20260505223048 7 231 0.0 0.0 0.00 0.03 0.00 18 1010.6
20260505221604 8 231 0.0 0.0 0.00 0.03 0.00 18 1010.6
20260505220112 8 230 0.0 0.0 0.00 0.03 0.00 20 1010.9
20260505214547 8 230 0.0 0.0 0.00 0.10 0.03 21 1010.9
20260505213106 9 231 0.0 0.0 0.00 0.10 0.03 23 1010.9
20260505211509 9 230 0.0 0.0 0.00 0.10 0.03 24 1010.8
20260505210020 10 230 0.0 0.0 0.00 0.10 0.03 27 1010.7
20260505204540 10 231 0.0 0.0 0.00 0.64 0.03 31 1010.4
20260505203057 10 230 0.0 0.0 0.00 0.64 0.03 36 1010.4
20260505201541 10 233 0.0 0.0 0.00 0.64 0.03 43 1010.0
20260505200040 10 233 0.0 0.0 0.00 0.64 0.03 48 1009.8
20260505194606 10 233 0.0 0.0 0.00 0.64 0.03 54 1009.6
20260505193034 10 233 0.0 0.0 0.00 0.64 0.03 61 1009.4
20260505191524 11 233 0.0 0.0 0.00 0.64 0.03 67 1009.3
20260505190032 11 233 0.0 0.0 0.00 0.64 0.03 69 1009.2
20260505184542 11 233 0.0 0.0 0.00 0.64 0.03 71 1009.0
20260505183046 12 244 0.0 0.0 0.00 0.64 0.03 72 1009.0
20260505181612 12 267 0.0 0.0 0.00 0.64 0.03 72 1009.1
20260505180010 12 245 0.0 0.0 0.00 0.64 0.03 73 1008.7
20260505174537 12 220 0.0 0.0 0.00 0.64 0.03 73 1008.7
20260505173039 13 219 0.0 0.0 0.00 0.64 0.03 73 1008.5
20260505171548 13 277 0.0 0.0 0.00 0.64 0.03 72 1008.7
20260505170014 14 244 0.0 0.0 0.00 0.64 0.03 71 1008.6
20260505164534 15 248 0.0 0.0 0.00 0.64 0.03 69 1008.1